SCP
1 0 0 0 0 0 0 0 0 0 0 0 1 1 1 0 0 0 1 1 1 0 1 1 1 1 1 1 1 0 0 0 0 0 0 0 0 0 0 0 0 0 0 0 1 1 1 1 0
1 0 0 0 0 0 0 0 0 0 0 0 1 1 1 0 0 0 1 1 1 1 1 1 1 1 1 1 1 1 0 0 0 0 0 0 0 0 0 0 0 0 0 1 1 1 1 1 0
0 0 0 0 0 0 0 1 1 1 0 0 1 0 0 1 1 0 1 1 1 1 1 1 1 1 1 1 1 1 0 0 1 1 0 0 0 0 0 0 0 0 1 1 1 1 1 1 0
0 0 0 0 0 0 1 1 1 1 0 0 0 0 1 1 1 1 1 1 1 1 1 1 1 1 1 1 1 1 0 0 1 1 1 1 0 0 0 0 0 1 1 1 1 1 1 1 0
0 0 0 0 0 0 1 1 1 1 1 0 0 0 1 1 1 1 1 1 1 1 1 1 1 1 1 1 1 0 0 0 1 1 1 1 1 0 0 0 0 0 1 1 1 0 0 0 0
0 0 0 0 0 0 1 1 1 1 1 1 1 1 1 1 1 1 1 1 1 1 1 1 1 1 1 1 0 0 0 0 0 1 1 1 1 0 0 0 0 0 0 0 0 0 0 0 0
0 0 0 0 0 0 1 1 1 1 1 1 1 1 1 1 1 1 1 0 0 1 1 1 1 1 1 1 0 0 0 0 0 1 1 1 0 0 0 0 0 0 0 0 0 0 0 0 0
0 0 0 0 0 0 1 1 1 1 1 1 1 1 1 1 1 1 1 1 1 1 1 1 1 1 1 1 0 0 0 0 0 0 0 0 0 0 0 0 0 0 0 0 0 0 0 0 0
0 0 0 0 0 0 1 1 1 1 1 1 1 1 1 1 1 1 1 1 1 1 1 1 1 1 1 1 0 0 0 0 0 0 0 0 0 0 0 0 0 0 0 1 1 0 0 0 0
0 0 0 0 0 1 1 1 1 1 1 1 1 1 2 2 1 1 1 1 1 1 1 0 0 1 1 0 0 0 0 0 0 0 0 0 0 0 0 0 0 0 1 1 1 1 0 0 0
0 0 0 0 0 1 1 1 1 1 1 1 1 2 2 2 1 1 1 0 0 0 0 0 0 0 0 0 0 0 0 0 0 0 0 0 0 0 0 0 0 0 1 1 1 1 1 0 0
0 0 0 0 0 1 1 1 1 1 1 1 1 2 2 2 1 1 1 0 0 0 0 0 0 0 0 0 0 0 0 0 0 0 0 0 0 0 0 0 0 0 0 1 1 1 0 0 0
0 0 0 0 0 0 0 1 1 1 1 1 1 2 2 2 1 1 1 1 0 0 0 0 0 0 0 0 0 0 0 0 0 0 0 0 0 0 0 0 0 0 0 0 0 0 0 0 0
0 0 0 0 0 0 0 1 1 1 1 2 2 2 1 1 1 1 1 1 1 0 0 0 0 0 0 0 0 0 0 0 0 0 0 0 0 0 0 0 0 0 0 0 0 0 0 0 0
0 0 0 0 0 0 1 1 1 1 2 2 1 1 1 1 1 1 1 1 1 1 0 0 0 0 0 0 0 0 0 0 1 0 0 0 0 0 0 0 0 0 0 0 0 0 0 0 0
0 0 0 0 0 0 0 1 1 1 2 1 1 1 1 1 1 1 1 1 1 1 0 0 0 0 0 0 0 1 1 1 1 1 1 0 0 0 0 0 0 0 0 0 0 0 0 0 0
0 0 0 0 0 0 0 0 1 1 1 1 1 1 1 1 1 1 1 1 1 1 1 1 1 1 0 0 0 1 1 1 1 1 1 1 1 0 0 0 0 0 0 0 0 0 0 1 1
0 0 0 0 0 0 0 0 1 1 1 1 1 1 1 1 1 1 2 2 1 1 1 1 1 1 1 1 1 1 1 1 1 1 1 1 1 0 0 0 0 0 0 0 0 0 1 1 1
0 0 0 0 0 0 0 0 1 1 1 1 1 1 1 1 2 3 3 2 2 1 2 2 2 1 1 1 1 1 1 1 1 1 1 1 1 0 0 0 0 0 0 0 0 0 0 0 0
0 0 0 1 1 1 0 0 1 1 1 1 1 1 1 1 2 3 3 2 2 2 2 3 3 2 2 1 1 1 1 1 1 1 1 1 1 0 0 0 0 1 1 1 0 0 0 0 0
0 0 0 1 1 1 0 0 0 1 1 1 1 1 1 1 1 2 2 2 2 2 2 4 4 3 2 2 2 1 1 1 1 1 1 1 0 0 0 0 1 1 1 1 1 1 1 1 1
0 0 0 0 1 1 1 0 0 0 0 1 1 1 1 1 1 1 1 1 1 2 3 4 4 4 3 2 2 2 2 1 1 1 1 1 1 1 1 1 1 1 1 1 1 1 1 1 1
0 0 0 0 0 0 0 0 0 0 0 1 1 1 1 1 1 1 1 1 1 2 3 3 4 4 3 2 2 2 2 1 1 1 1 1 1 1 1 1 1 1 1 1 1 1 1 1 1
0 0 0 0 0 0 0 0 0 0 0 1 1 1 1 1 1 1 1 1 1 2 2 3 4 4 3 3 2 2 2 1 1 1 1 1 1 1 1 1 1 1 1 1 1 1 1 1 1
0 0 0 0 0 0 0 0 0 0 0 1 1 1 1 1 1 2 2 2 2 2 2 3 4 4 4 3 3 3 2 2 2 1 1 1 1 1 1 1 1 1 1 1 1 1 1 1 1
0 0 0 0 0 0 0 0 0 0 0 1 1 1 1 2 2 2 3 3 2 2 2 3 4 4 4 4 3 3 3 3 2 2 1 1 1 1 1 1 1 1 1 1 1 1 1 2 2
0 0 0 0 0 0 0 1 1 1 1 1 1 1 1 2 3 4 4 3 3 2 3 3 4 4 4 4 4 3 3 3 3 2 2 2 1 2 2 1 1 1 1 1 1 1 1 1 1
0 0 0 0 0 0 0 1 2 2 2 2 1 1 2 3 4 5 4 4 4 3 3 3 4 4 4 4 4 4 4 4 3 3 3 2 2 2 2 1 1 1 1 1 1 1 1 1 1
0 0 0 0 0 0 0 1 2 2 2 2 2 2 3 4 4 4 5 5 4 3 3 3 3 3 3 3 3 4 4 4 3 2 3 3 2 2 2 1 1 1 1 1 1 1 1 1 1
0 0 0 0 0 0 0 1 1 1 1 1 2 2 3 3 4 4 4 4 4 3 3 3 3 3 3 3 4 4 4 4 3 2 2 2 2 2 2 1 1 1 1 1 1 1 1 1 1
Wind_Speed
4 0 2 2 6 7 4 4 2 3 4 4 6 7 7 5 2 4 2 5 6 5 5 8 12 13 13 14 14 14 15 15 15 15 15 15 15 15 15 14 14 14 14 14 14 13 13 13 13
0 1 2 4 7 4 3 3 4 4 4 4 6 7 7 6 5 7 4 5 7 6 5 7 12 12 13 13 14 14 15 15 14 14 14 14 14 14 14 13 13 13 13 13 13 13 13 12 12
1 1 4 5 5 3 2 1 5 5 4 3 5 6 5 4 5 4 4 8 7 6 5 7 12 12 12 13 13 13 14 14 14 13 13 13 13 13 13 12 12 12 12 12 12 12 12 12 11
2 4 6 7 4 1 3 3 5 5 5 6 5 6 5 4 4 6 9 9 8 5 4 6 12 12 12 12 12 13 13 13 13 13 12 12 12 12 12 12 11 11 12 12 12 12 11 11 10
4 5 7 5 3 2 3 4 3 4 4 5 5 6 4 4 9 11 10 9 7 5 4 5 11 11 11 11 11 12 12 12 12 12 12 11 11 11 11 11 11 11 11 11 11 11 10 10 9
5 5 6 3 2 3 3 3 4 6 5 5 5 5 4 5 9 9 9 7 6 5 4 5 10 10 10 10 11 11 11 12 11 11 11 11 11 11 10 10 10 10 10 10 10 10 9 8 8
5 5 4 3 2 2 3 3 4 5 5 4 4 6 3 4 6 8 8 7 5 5 4 3 4 6 9 10 10 10 10 11 11 10 10 10 10 10 9 9 9 9 9 8 8 8 8 8 7
4 5 4 2 3 2 3 3 4 5 4 5 4 6 5 5 8 8 7 6 5 4 4 4 4 4 4 5 9 10 10 10 9 9 9 9 8 8 8 7 7 7 7 7 6 7 7 6 6
4 6 2 3 4 3 4 4 3 4 6 3 4 4 7 13 11 9 7 5 4 4 3 3 4 4 4 3 6 7 8 8 7 6 8 6 4 4 4 5 6 6 6 5 5 5 5 6 5
5 4 4 4 4 5 6 5 6 5 5 4 6 9 14 13 11 10 9 7 5 4 3 2 3 3 3 3 3 3 3 3 3 3 4 3 3 2 3 3 4 4 4 4 4 5 5 4 2
3 3 2 1 4 6 6 5 4 8 4 6 11 16 15 13 10 8 8 6 5 4 4 3 3 3 3 2 2 2 2 2 2 3 3 2 2 2 2 2 2 3 3 3 3 3 2 2 2
2 1 2 3 4 5 6 5 4 4 4 7 14 17 16 14 12 10 9 7 5 5 4 4 3 3 2 2 2 2 2 1 1 1 2 2 1 1 1 1 1 2 1 1 1 1 1 1 1
2 1 2 3 5 5 7 5 4 2 5 12 14 14 13 12 9 7 6 6 5 5 5 5 4 4 3 2 2 2 2 2 2 1 1 1 1 1 0 0 1 1 1 0 0 0 1 0 0
1 3 3 4 5 3 6 4 4 3 9 13 14 12 11 11 10 7 7 7 7 7 6 5 5 5 4 3 3 2 2 2 2 1 2 2 1 1 1 0 0 0 0 0 0 0 0 0 0
2 5 5 3 3 3 6 4 1 6 11 12 12 10 9 8 9 10 10 8 8 7 6 5 6 5 5 4 4 2 2 2 2 2 2 2 2 2 1 1 1 1 0 0 0 0 0 0 0
4 5 3 1 2 3 6 2 2 7 11 10 10 10 9 8 9 9 8 7 7 6 6 6 6 6 5 4 4 2 2 3 2 2 2 2 3 3 2 1 1 1 0 1 1 1 0 0 0
5 3 1 0 1 3 4 2 3 7 9 9 9 9 9 8 8 8 8 8 8 8 7 7 6 6 6 5 3 3 2 2 2 2 2 2 3 3 2 2 1 1 1 1 1 1 1 1 1
2 2 1 1 1 3 3 2 4 6 7 7 7 7 8 9 9 8 8 8 7 7 6 7 6 6 5 3 2 1 1 1 2 2 2 3 3 3 2 1 1 1 1 1 1 1 1 1 1
5 4 1 2 1 3 2 2 5 6 6 6 6 7 7 8 6 6 7 7 6 6 7 7 7 6 5 3 3 2 2 1 1 2 3 3 3 3 3 2 1 1 1 1 1 1 1 1 1
4 3 1 1 1 2 2 1 3 6 8 8 8 8 8 6 5 6 7 7 8 8 8 7 7 7 6 4 3 2 2 2 2 1 2 3 3 3 3 3 2 2 1 1 1 1 1 0 1
2 4 4 2 2 4 3 3 1 2 3 3 5 6 6 8 8 7 8 8 7 8 9 8 7 6 6 5 3 2 1 1 1 1 1 2 3 3 3 3 3 2 2 2 2 2 2 2 1
2 3 5 3 4 1 2 1 5 3 3 4 6 6 7 8 8 8 8 8 9 9 8 7 7 7 6 6 5 5 4 3 3 2 2 2 3 3 3 4 3 3 2 3 3 3 2 3 2
4 3 4 3 4 2 3 1 6 1 4 7 8 8 8 7 8 9 9 9 8 7 7 6 7 6 6 6 6 5 4 3 2 2 2 2 2 3 3 3 3 3 3 3 3 2 3 3 3
6 7 7 6 5 2 2 2 6 4 7 6 6 8 8 8 8 7 7 6 6 6 6 6 6 6 5 6 6 6 6 4 3 3 3 2 2 2 3 3 3 3 2 3 3 3 3 3 3
5 7 5 5 4 4 2 2 8 6 6 6 7 8 8 7 8 8 8 8 7 7 7 7 7 6 6 6 6 6 6 6 5 4 4 3 2 2 3 3 3 2 3 3 2 2 2 3 3
4 9 8 6 4 3 2 4 8 5 4 5 5 4 4 6 7 8 9 9 8 8 8 7 7 6 6 7 6 6 5 4 4 4 4 3 3 3 2 3 3 3 3 3 2 2 2 2 3
7 3 6 8 3 1 3 5 8 3 3 2 2 2 3 4 6 7 7 8 8 8 8 8 8 7 7 6 6 5 5 5 4 4 3 3 2 2 3 3 3 2 2 2 2 1 1 1 2
6 9 6 6 6 2 3 4 5 4 4 3 2 2 3 2 3 4 5 6 7 7 6 6 6 6 6 6 5 4 4 5 4 3 3 3 3 2 2 3 3 2 2 1 1 1 1 1 1
5 5 6 5 5 7 2 7 6 6 4 4 4 3 2 2 2 2 3 4 4 5 5 6 6 5 5 5 5 4 4 4 3 3 3 3 2 2 3 3 3 2 2 2 2 1 1 1 1
5 7 8 7 3 4 4 8 4 3 3 3 3 2 1 1 1 2 3 4 4 5 5 5 5 5 4 4 4 4 3 3 3 2 2 2 2 2 2 2 2 2 2 1 2 2 1 1 1
Wind_Direction
301 212 130 81 54 50 34 14 52 69 53 48 73 79 83 62 78 126 120 124 115 109 105 112 112 109 107 106 107 107 107 106 107 107 108 111 113 115 115 115 114 113 113 113 113 114 116 116 116
268 147 83 59 70 60 11 10 61 61 115 112 72 68 69 62 66 99 115 125 115 111 104 116 115 112 110 109 108 109 109 109 108 107 107 110 114 115 115 114 113 113 113 113 113 114 115 117 117
183 111 76 65 75 110 116 55 96 91 85 67 71 60 68 83 102 112 132 125 108 103 105 124 119 116 113 112 111 111 111 111 110 109 108 109 114 115 115 115 115 114 115 114 113 112 113 114 114
90 49 53 65 68 111 148 140 121 103 57 46 79 70 64 76 111 120 124 118 109 105 109 126 122 118 116 114 113 114 115 115 113 113 112 110 110 113 116 114 112 115 114 114 112 112 113 113 114
62 72 60 54 46 68 103 127 104 87 65 59 75 81 55 47 99 115 118 117 116 111 112 124 123 120 119 118 117 118 118 118 116 116 114 112 110 108 115 113 110 109 111 111 111 112 112 113 116
56 64 75 70 55 65 93 103 97 90 91 86 79 87 64 100 114 121 118 116 118 116 108 118 126 125 123 122 122 122 122 119 118 117 115 114 112 111 111 111 110 109 109 110 113 114 114 114 115
90 83 103 117 98 91 129 106 103 112 106 102 100 94 97 115 117 116 111 110 109 104 98 92 105 118 126 127 126 125 124 120 120 120 118 115 113 112 112 110 110 111 111 111 112 113 117 117 117
111 95 87 112 129 142 132 107 106 112 103 110 108 126 152 151 120 107 101 100 101 95 91 88 80 83 96 116 128 128 126 125 124 123 119 116 113 111 111 108 112 113 112 112 111 113 119 119 119
85 76 127 183 163 153 137 123 119 88 106 100 91 119 133 131 123 117 115 110 115 117 87 91 92 89 91 105 126 125 127 125 121 120 118 101 72 76 89 107 112 113 112 111 109 108 111 111 111
81 114 207 198 168 146 141 133 137 121 115 94 87 98 121 133 137 141 147 154 159 157 147 122 119 114 106 114 93 79 86 87 83 80 85 79 73 65 78 81 99 97 90 86 90 98 95 91 85
110 165 203 146 137 130 129 127 129 134 169 176 151 143 144 147 152 157 162 166 171 165 166 155 147 132 119 101 100 82 76 81 85 88 87 80 66 51 46 40 41 44 51 46 54 64 72 88 102
120 214 154 141 124 123 133 130 128 167 197 157 151 148 151 160 167 172 173 174 165 165 177 167 161 145 140 123 113 114 109 111 118 114 111 102 86 63 48 48 35 39 42 43 43 61 67 76 111
75 29 70 108 106 110 112 115 123 118 119 129 139 148 160 168 171 176 173 171 169 178 184 179 172 170 163 147 154 148 155 163 161 146 144 144 138 144 85 45 40 30 43 63 50 39 48 50 90
57 66 71 83 87 101 112 98 95 125 129 137 149 161 168 173 172 171 174 181 183 188 190 183 184 182 171 171 176 169 169 169 166 177 187 179 169 175 171 185 298 290 271 240 194 206 173 130 156
67 72 52 53 86 111 105 64 118 146 141 149 161 169 173 176 177 185 187 187 189 190 186 185 189 182 179 184 187 177 178 173 183 194 192 183 177 177 180 187 242 256 191 153 257 10 56 182 172
53 65 73 336 84 116 116 185 176 147 151 160 170 177 181 187 190 193 189 185 185 182 182 189 192 181 185 186 184 175 178 178 185 188 190 184 182 180 182 195 225 227 154 152 187 193 189 221 182
40 93 124 334 76 115 121 190 176 155 161 172 181 186 187 190 198 196 189 186 184 185 182 184 185 176 181 181 176 175 173 182 181 178 183 186 188 184 181 201 219 190 153 190 216 181 182 193 207
156 133 129 193 200 110 125 189 174 169 174 184 190 195 195 200 205 196 188 187 187 186 182 185 183 175 164 153 146 149 162 181 179 181 188 189 190 182 173 190 197 171 165 209 206 196 196 184 185
136 126 140 249 233 121 158 184 196 177 185 195 199 201 208 212 202 186 182 181 181 185 186 189 185 174 156 146 157 165 193 188 189 197 197 194 194 187 175 188 187 181 191 208 197 180 165 182 142
121 116 131 331 9 121 141 233 207 189 200 202 202 204 207 205 194 191 185 185 188 193 193 191 191 179 173 170 164 166 163 176 182 188 196 201 198 193 192 189 198 188 188 190 189 172 142 122 131
146 163 178 174 46 47 81 359 288 245 219 213 211 205 202 200 203 201 194 190 189 196 194 192 190 187 180 167 140 119 99 82 129 190 212 218 206 202 201 195 196 197 194 202 210 190 179 181 175
215 204 162 140 101 353 81 262 283 254 240 229 223 212 211 207 201 199 198 195 195 199 195 186 183 189 183 168 173 179 185 197 206 198 201 217 215 212 207 204 200 202 205 208 216 201 189 179 194
179 109 112 112 120 73 24 130 287 307 252 246 230 219 218 211 202 201 201 201 197 189 187 186 184 186 182 181 183 184 196 201 191 185 198 219 227 220 213 204 205 209 210 213 214 205 194 192 193
128 74 59 51 73 72 261 157 279 242 232 244 232 225 219 210 203 202 196 188 187 180 181 183 184 189 183 186 184 188 193 192 191 196 203 224 229 224 223 212 212 217 217 222 221 216 202 200 196
100 91 49 19 27 250 281 180 251 253 247 237 235 227 218 208 200 196 187 186 187 184 185 180 179 188 183 188 194 195 197 194 201 202 205 212 222 226 229 222 217 223 223 225 216 209 207 198 198
155 135 151 171 196 266 326 231 256 265 275 264 245 230 214 210 204 201 194 190 190 188 184 177 181 191 189 192 199 196 192 193 201 203 198 204 216 225 216 216 223 226 220 220 205 205 211 198 209
127 135 146 121 127 81 289 290 302 299 322 317 277 229 225 219 208 203 193 187 185 187 187 183 185 191 191 193 196 191 189 191 199 201 201 208 215 217 200 199 207 213 199 194 178 187 208 183 206
130 140 105 112 136 191 296 283 259 276 290 298 293 270 258 248 223 203 188 184 182 184 179 171 178 188 189 186 191 192 189 194 195 192 207 209 215 212 185 183 182 183 176 177 163 163 167 175 220
106 92 101 105 139 146 204 266 234 226 240 252 261 267 256 242 228 206 181 172 158 150 153 161 169 174 177 180 182 184 181 179 179 197 214 204 200 193 187 180 176 173 169 172 162 180 182 189 228
139 150 142 141 175 154 160 260 276 218 242 239 255 275 250 230 197 144 131 127 127 135 143 154 162 166 174 169 167 173 164 159 168 189 212 191 189 185 174 164 153 164 165 168 180 197 190 187 221